EW5980 Weather Reports


time (UTC)temp
F
wind
direction
speed
knots
gust
knots
rain 1hr
in
rain 24hr
in
rain mn
in
humidity
%
barometer
mb
20260504214540 78 0.0 0.0 0.00 0.00 0.00 42 1013.4
20260504213058 78 0.0 0.0 0.00 0.00 0.00 41 1013.4
20260504211549 78 0.0 0.0 0.00 0.00 0.00 42 1013.8
20260504210043 78 0.0 0.0 0.00 0.00 0.00 41 1013.8
20260504204542 79 0.0 0.0 0.00 0.00 0.00 42 1014.0
20260504203048 79 0.0 0.0 0.00 0.00 0.00 42 1014.0
20260504201540 79 0.0 0.0 0.00 0.00 0.00 41 1014.3
20260504200046 79 0.0 0.0 0.00 0.00 0.00 42 1014.6
20260504194551 80 0.0 0.0 0.00 0.00 0.00 41 1015.1
20260504193043 79 0.0 0.0 0.00 0.00 0.00 42 1015.2
20260504191543 79 0.0 0.0 0.00 0.00 0.00 43 1015.4
20260504190042 80 0.0 0.0 0.00 0.00 0.00 42 1015.5
20260504184537 81 0.0 0.0 0.00 0.00 0.00 43 1015.6
20260504183045 80 0.0 0.0 0.00 0.00 0.00 43 1015.7
20260504181541 80 0.0 0.0 0.00 0.00 0.00 44 1015.8
20260504180048 80 0.0 0.0 0.00 0.00 0.00 42 1016.1
20260504174544 80 0.0 0.0 0.00 0.00 0.00 42 1016.3
20260504173046 80 0.0 0.0 0.00 0.00 0.00 42 1016.3
20260504171546 79 0.0 0.0 0.00 0.00 0.00 43 1016.4
20260504081551 57 0.0 0.0 0.00 0.00 0.00 53 1016.9
20260504044546 60 0.0 0.0 0.00 0.00 0.00 67 1018.5
20260504043045 61 0.0 0.0 0.00 0.00 0.00 68 1018.5
20260504041543 61 0.0 0.0 0.00 0.00 0.00 70 1018.4
20260504040100 61 0.0 0.0 0.00 0.00 0.00 71 1018.5
20260504034541 62 0.0 0.0 0.00 0.00 0.00 72 1018.5
20260504033038 62 0.0 0.0 0.00 0.00 0.00 71 1018.6
20260504031545 63 0.0 0.0 0.00 0.00 0.00 71 1018.6
20260504030045 63 0.0 0.0 0.00 0.00 0.00 70 1018.5
20260504024541 64 0.0 0.0 0.00 0.00 0.00 69 1018.6
20260504023047 64 0.0 0.0 0.00 0.00 0.00 67 1018.5
20260504021540 65 0.0 0.0 0.00 0.00 0.00 65 1018.3
20260504020039 66 0.0 0.0 0.00 0.00 0.00 63 1018.2
20260504014550 66 0.0 0.0 0.00 0.00 0.00 60 1018.1
20260504013045 67 0.0 0.0 0.00 0.00 0.00 59 1018.0
20260504011542 68 0.0 0.0 0.00 0.00 0.00 57 1018.0
20260504010050 69 0.0 0.0 0.00 0.00 0.00 55 1017.8
20260504004545 70 0.0 0.0 0.00 0.00 0.00 53 1017.8
20260504003055 71 0.0 0.0 0.00 0.00 0.00 52 1017.7
20260504001551 71 0.0 0.0 0.00 0.00 0.00 51 1017.5
20260504000042 72 0.0 0.0 0.00 0.00 0.00 48 1017.5
20260503234542 73 0.0 0.0 0.00 0.00 0.00 49 1017.5
20260503233043 74 0.0 0.0 0.00 0.00 0.00 46 1017.6
20260503231540 74 0.0 0.0 0.00 0.00 0.00 46 1017.5
20260503230038 75 0.0 0.0 0.00 0.00 0.00 43 1017.8
20260503224536 75 0.0 0.0 0.00 0.00 0.00 43 1017.8
20260503223043 75 0.0 0.0 0.00 0.00 0.00 43 1017.8
20260503221549 75 0.0 0.0 0.00 0.00 0.00 43 1018.0
20260503220041 76 0.0 0.0 0.00 0.00 0.00 43 1018.1